Location: Carr Mill
(33.2054°N, 85.9439°W)
Time: 23:58:16
(UTC+00:00)

STARLINK-2732 - Pass Details

Date: 26 October 2021
Orbit: 545 x 549 km, 53.1° (Epoch: 30 November)

Event Time Altitude Azimuth Distance (km) Brightness Sun altitude
Exits shadow 09:28:16 12° 138° (SE) 1,703 6.5 -31.7°
Maximum altitude 09:29:16 13° 123° (ESE) 1,652 6.6 -31.5°
Drops below altitude 10° 09:31:02 10° 97° (E) 1,811 7.1 -31.2°
Sets 09:34:25 0° 68° (ENE) 2,709 8.2 -30.5°
